Location: Unspecified
(0.0000°N, 0.0000°E)
Time: 15:47:13
(UTC+00:00)

A-11 Canister half - Visible Passes

Search period start: 28 November 2014 00:00
Search period end: 08 December 2014 00:00
Orbit: 1525 x 1685 km, 47.3° (Epoch: 27 November)

Date Brightness Start Highest point End Pass type
(mag) Time Alt. Az. Time Alt. Az. Time Alt. Az.
28 Nov 10.8 18:54:01 10° SE 18:54:59 10° SE 18:55:57 10° SE visible
28 Nov 9.6 20:50:52 10° SSW 20:57:52 48° S 20:57:52 48° S visible
29 Nov 9.4 20:29:24 10° SSW 20:37:45 54° SSE 20:37:45 54° SSE visible
29 Nov 11.2 22:35:36 10° WSW 22:36:04 11° WSW 22:36:04 11° WSW visible
30 Nov 9.2 20:07:57 10° SSW 20:17:32 54° SE 20:17:40 54° SE visible
30 Nov 11.0 22:13:49 10° WSW 22:16:00 17° WSW 22:16:00 17° WSW visible
01 Dec 9.3 19:46:30 10° SSW 19:55:59 50° SE 19:57:38 47° ESE visible
01 Dec 10.6 21:52:04 10° WSW 21:55:58 24° W 21:55:58 24° W visible
02 Dec 9.4 19:25:05 10° SSW 19:34:25 47° SE 19:37:39 37° E visible
02 Dec 10.3 21:30:21 10° WSW 21:35:59 31° W 21:35:59 31° W visible
03 Dec 9.5 19:03:40 10° SSW 19:12:51 44° SE 19:17:42 28° ENE visible
03 Dec 9.9 21:08:38 10° WSW 21:16:03 39° WNW 21:16:03 39° WNW visible
04 Dec 9.6 18:42:16 10° SSW 18:51:17 41° SE 18:57:48 20° ENE visible
04 Dec 9.7 20:46:57 10° WSW 20:56:08 45° NW 20:56:08 45° NW visible
05 Dec 9.7 18:20:53 10° SSW 18:29:43 38° SE 18:37:55 13° ENE visible
05 Dec 9.6 20:25:17 10° WSW 20:34:40 48° NW 20:36:16 45° NNW visible
06 Dec 11.0 05:11:51 10° NNE 05:16:37 15° NE 05:21:17 10° ENE visible
06 Dec 9.9 17:59:32 10° SSW 18:08:09 35° SE 18:16:57 10° ENE visible
06 Dec 9.6 20:03:38 10° WSW 20:13:06 52° NW 20:16:25 39° N visible
07 Dec 11.0 04:50:53 10° NNE 04:55:00 13° NE 04:59:02 10° ENE visible
07 Dec 9.5 19:41:59 10° SW 19:51:32 55° NW 19:56:35 31° NNE visible
